Location: Caltech
(34.1382°N, 118.1253°W)
Time: 23:56:42
(UTC-07:00)

ITAMSAT 1 - Visible Passes

Search period start: 26 March 2015 00:00
Search period end: 05 April 2015 00:00
Orbit: 785 x 797 km, 98.7° (Epoch: 25 March)

Date Brightness Start Highest point End Pass type
(mag) Time Alt. Az. Time Alt. Az. Time Alt. Az.
26 Mar 10.1 03:34:49 10° N 03:35:38 15° N 03:35:38 15° N visible
27 Mar 10.4 03:05:38 10° NNE 03:06:11 13° NNE 03:06:11 13° NNE visible
28 Mar 9.9 04:16:37 10° NNW 04:17:29 14° NNW 04:17:29 14° NNW visible
29 Mar 9.9 03:46:48 10° N 03:48:02 17° N 03:48:02 17° N visible
30 Mar 10.1 03:17:27 10° NNE 03:18:35 17° NNE 03:18:35 17° NNE visible
31 Mar 10.4 02:48:30 10° NNE 02:49:08 13° NNE 02:49:08 13° NNE visible
31 Mar 9.8 04:28:55 10° NNW 04:29:53 14° NNW 04:29:53 14° NNW visible
01 Apr 9.6 03:58:52 10° N 04:00:27 19° NNW 04:00:27 19° NNW visible
02 Apr 9.7 03:29:21 10° N 03:31:00 21° N 03:31:00 21° N visible
03 Apr 10.1 03:00:13 10° NNE 03:01:33 18° NNE 03:01:33 18° NNE visible
03 Apr 9.8 04:41:24 10° NNW 04:42:17 12° NW 04:42:17 12° NW visible
04 Apr 10.5 02:31:35 10° NE 02:32:05 12° NE 02:32:05 12° NE visible
04 Apr 9.5 04:10:59 10° N 04:12:50 19° NNW 04:12:50 19° NNW visible
